Location: Newark
(30.0333°N, 31.2167°E)
Time: 14:58:31
(UTC+00:00)

Tiros 1 despin weight - Pass Details

Date: 23 January 2020
Orbit: 594 x 642 km, 48.2° (Epoch: 23 February)

Event Time Altitude Azimuth Distance (km) Brightness Sun altitude
Rises 15:57:24 0° 317° (NW) 2,928 ? -7.6°
Reaches altitude 10° 15:59:49 10° 323° (NW) 2,023 ? -8.1°
Maximum altitude 16:04:18 45° 37° (NE) 869 ? -9.1°
Drops below altitude 10° 16:08:47 10° 110° (ESE) 2,024 ? -10.0°
Enters shadow 16:09:37 - 113° (ESE) 2,338 ? -10.2°
Sets 16:11:11 0° 117° (ESE) 2,930 - -10.5°
